Regional Weather Roundup
Issued by NWS Sioux Falls, SD

Home | Current Version | Previous Version | Graphics & Text | Print | Product List | Glossary On
Versions: 1 2 3 4 5 6 7 8 9 10 11 12 13 14 15 16 17 18 19 20 21 22 23 24 25 26 27 28 29 30 31 32 33 34 35 36 37 38 39 40 41 42 43 44 45 46 47 48 49 50
000
ASUS43 KFSD 290410
RWRFSD

WEATHER ROUNDUP FOR SE SOUTH DAKOTA/SW MINNESOTA/NW IOWA
NATIONAL WEATHER SERVICE SIOUX FALLS SD
1100 PM CDT THU MAY 28 2015

NOTE: "FAIR" INDICATES FEW OR NO CLOUDS BELOW 12,000 FEET WITH NO
SIGNIFICANT WEATHER AND OR OBSTRUCTIONS TO VISIBILITY.


SDZ038>040-050-052>070-290500-
SOUTHEAST SOUTH DAKOTA

CITY           SKY/WX    TMP DP  RH WIND       PRES   REMARKS
BROOKINGS      MOCLDY    66  55  68 S14       29.90R
CHAMBERLAIN    CLOUDY    64  59  84 CALM      29.87R
HURON            N/A    N/A N/A N/A MISG      29.86R
MADISON        FAIR      64  63  94 S14       29.89R
MITCHELL       CLOUDY    71  63  75 SE13      29.85R
SIOUX FALLS    CLOUDY    67  61  81 S9        29.89S
WINNER         MOCLDY    65  59  81 W13       29.89R
YANKTON        MOCLDY    68  63  83 SE10      29.86F
$$

MNZ071-072-080-081-089-090-097-098-290500-
SOUTHWEST MINNESOTA

CITY           SKY/WX    TMP DP  RH WIND       PRES   REMARKS
FAIRMONT       CLOUDY    66  57  72 S13       29.95S
JACKSON        CLOUDY    66  61  82 S12       29.95F
LUVERNE        MOCLDY    66  59  77 S9        29.92S
MARSHALL       CLOUDY    68  55  64 S9        29.89R
MONTEVIDEO     MOCLDY    72  57  60 SW12G17   29.90R
PIPESTONE      MOCLDY    64  57  77 S12       29.92R
REDWOOD FALLS  MOCLDY    69  59  70 S14       29.90F
TRACY          CLOUDY    67  60  79 S9G16     29.91R
WINDOM         CLOUDY    66  61  82 S12G17    29.93F
WORTHINGTON    CLOUDY    64  57  77 S18       29.92F
$$

IAZ001>003-012>014-020>022-031-032-NEZ013-014-SDZ071-290500-
NORTHWEST IOWA

CITY           SKY/WX    TMP DP  RH WIND       PRES   REMARKS
CHEROKEE       CLOUDY    66  64  95 S8        29.93F
DENISON        CLOUDY    66  66 100 S8        29.93F
ESTHERVILLE    CLOUDY    66  61  84 S13       29.94F
LE MARS        CLOUDY    68  64  88 SE10G16   29.91F
ORANGE CITY    CLOUDY    64  63  94 S8        29.92F
SHELDON        CLOUDY    64  64 100 S12       29.91F
SIOUX CITY     CLOUDY    68  62  81 SE10      29.91F
SPENCER        CLOUDY    67  62  84 S13       29.94F
STORM LAKE     CLOUDY    66  63  88 S8        29.96F
$$

ABBREVIATIONS USED IN REMARKS
   TC - TEMPERATURE IN CELSIUS
  WCI - WIND CHILL INDEX
   HX - HEAT INDEX
  VSB - VISIBILITY




USA.gov is the U.S. government's official web portal to all federal, state and local government web resources and services.